090  
ASUS42 KKEY 282010  
RWRKEY  
 
FLORIDA KEYS REGIONAL WEATHER ROUNDUP  
NATIONAL WEATHER SERVICE KEY WEST FLORIDA  
300 PM EST MON NOV 28 2022  
   
..FLORIDA KEYS
 
 
 
CITY SKY/WX TMP DP RH WIND PRES REMARKS
 
KEY WEST MOSUNNY 84 72 67 NE6 29.99F  
BOCA CHICA NAS MOSUNNY 91 72 53 N7 29.99S HX 98  
MARATHON SUNNY 84 69 60 CALM 29.98F  
   
..SOUTH FLORIDA
 
 
 
CITY SKY/WX TMP DP RH WIND PRES REMARKS
 
HOMESTEAD MOSUNNY 82 69 64 E6 29.96F  
WEST KENDALL MOSUNNY 87 68 52 N5 29.98S HX 90  
MIAMI PTSUNNY 87 67 51 VRB6 29.99R HX 90  
OPA LOCKA MOSUNNY 84 69 60 E9 29.99S  
PEMBROKE PINES MOSUNNY 81 70 69 NE6 30.00S  
FT LAUDERDALE PTSUNNY 82 72 71 E8 29.98S  
FT LAUD EXEC MOSUNNY 87 70 56 NW5 29.99S HX 92  
POMPANO BEACH PTSUNNY 82 73 74 NE9 29.99S  
BOCA RATON NOT AVBL  
WEST PALM BCH MOSUNNY 79 63 57 NE12 30.01S  
   
..SOUTHWEST FLORIDA
 
 
 
CITY SKY/WX TMP DP RH WIND PRES REMARKS
 
MARCO ISLAND LGT RAIN 76 73 91 N3 30.02R  
NAPLES CLOUDY 82 71 69 NE7 29.99F  
FT MYERS-SW AP PTSUNNY 80 64 58 N9 30.01S  
FORT MYERS PTSUNNY 80 60 50 NE9 30.00F  
   
..ADJACENT COASTAL WATERS
 
 
 
STATION/POSITION TIME SKY/WX TEMP WIND PRES WAVE
 
AIR SEA DIR/SP/G HT/PER  
(UTC) (F) (DEG/KT/KT) (MB) (FT/S)  
PULASKI SHOAL LT NOT AVBL  
SAND KEY NOT AVBL  
SOMBRERO KEY 1950 82 340/ 2/ 4 1015.4F  
LONG KEY 1950 CALM / 3 1014.5F  
FOWEY ROCKS 2000 88 79 60/ 6/ 7 1015.7F  
SATAN SHL BUOY 1930 80 82 N/A 1/10  
PULLEY RDG BUOY 1956 80 N/A 3/ 8  
   
..INTERNATIONAL WEATHER
 
 
 
CITY SKY/WX TMP DP RH WIND PRES REMARKS
 
NASSAU MOSUNNY 82 73 74 N8 30.00S  
HAVANA MOSUNNY 84 70 61 NE14 29.97S  
VARADERO MOSUNNY 84 70 61 NE12 29.97S  
CANCUN MOSUNNY 79 75 89 E3 29.93F  
COZUMEL PTSUNNY 84 75 74 SE14 29.91F HX 92  
KINGSTON MOSUNNY 84 73 70 SE15 29.89S HX 91  
BELIZE CITY MOSUNNY 86 77 74 E9 29.86F HX 97  
 

 
 
 
CLICK HERE TO GO TO PREVIOUS BULLETINS.

The Nexlab FL Page Main Text Page